Stündliche Wetter Ceber

Heute, 29 Oktober, Donnerstag

Zeit Temperatur Niederschläge Wind Luftdruck Luftfeuchtigkeit
00:00 +8°C° 0 mm 4 m/S 754 mmHg 82%
01:00 +8°C° 0 mm 4 m/S 754 mmHg 82%
02:00 +8°C° 0 mm 4 m/S 753 mmHg 82%
03:00 +8°C° 0 mm 4 m/S 753 mmHg 81%
04:00 +8°C° 0 mm 4 m/S 752 mmHg 81%
05:00 +8°C° 0 mm 4 m/S 752 mmHg 81%
06:00 +8°C° 0 mm 4 m/S 752 mmHg 81%
07:00 +8°C° 0 mm 4 m/S 752 mmHg 81%
08:00 +9°C° 0.2 mm 5 m/S 752 mmHg 80%
09:00 +10°C° 0.2 mm 5 m/S 752 mmHg 80%
10:00 +10°C° 0.2 mm 6 m/S 752 mmHg 79%
11:00 +11°C° 0.1 mm 6 m/S 752 mmHg 73%
12:00 +11°C° 0.1 mm 7 m/S 753 mmHg 66%
13:00 +11°C° 0.1 mm 7 m/S 753 mmHg 60%
14:00 +11°C° 0.1 mm 6 m/S 753 mmHg 62%
15:00 +10°C° 0.1 mm 5 m/S 754 mmHg 64%
16:00 +9°C° 0.1 mm 5 m/S 754 mmHg 66%
17:00 +9°C° 0 mm 5 m/S 755 mmHg 67%
18:00 +9°C° 0 mm 5 m/S 756 mmHg 67%
19:00 +9°C° 0 mm 5 m/S 756 mmHg 68%
20:00 +8°C° 0 mm 5 m/S 756 mmHg 71%
21:00 +8°C° 0 mm 5 m/S 757 mmHg 74%
22:00 +7°C° 0 mm 5 m/S 757 mmHg 77%
23:00 +7°C° 0 mm 5 m/S 757 mmHg 78%

Morgen, 30 Oktober, Freitag

Zeit Temperatur Niederschläge Wind Luftdruck Luftfeuchtigkeit
00:00 +6°C° 0 mm 4 m/S 758 mmHg 79%
01:00 +6°C° 0 mm 4 m/S 758 mmHg 80%
02:00 +6°C° 0 mm 4 m/S 758 mmHg 79%
03:00 +6°C° 0 mm 4 m/S 758 mmHg 78%
04:00 +7°C° 0 mm 3 m/S 758 mmHg 77%
05:00 +7°C° 0.2 mm 3 m/S 758 mmHg 81%
06:00 +7°C° 0.2 mm 3 m/S 757 mmHg 84%
07:00 +8°C° 0.2 mm 3 m/S 757 mmHg 87%
08:00 +8°C° 0.7 mm 3 m/S 757 mmHg 89%
09:00 +8°C° 0.7 mm 3 m/S 757 mmHg 91%
10:00 +8°C° 0.7 mm 4 m/S 757 mmHg 92%
11:00 +10°C° 1.1 mm 4 m/S 756 mmHg 93%
12:00 +10°C° 1.1 mm 4 m/S 756 mmHg 93%
13:00 +11°C° 1.1 mm 4 m/S 755 mmHg 93%
14:00 +12°C° 0.3 mm 5 m/S 756 mmHg 93%
15:00 +12°C° 0.3 mm 5 m/S 756 mmHg 92%
16:00 +11°C° 0.3 mm 6 m/S 756 mmHg 92%
17:00 +11°C° 0.7 mm 6 m/S 756 mmHg 92%
18:00 +11°C° 0.7 mm 6 m/S 756 mmHg 92%
19:00 +11°C° 0.7 mm 6 m/S 756 mmHg 93%
20:00 +11°C° 0.7 mm 6 m/S 756 mmHg 92%
21:00 +13°C° 0.7 mm 6 m/S 756 mmHg 92%
22:00 +13°C° 0.7 mm 6 m/S 757 mmHg 92%
23:00 +13°C° 0.3 mm 6 m/S 757 mmHg 92%

übermorgen, 31 Oktober, Samstag

Zeit Temperatur Niederschläge Wind Luftdruck Luftfeuchtigkeit
00:00 +13°C° 0.3 mm 6 m/S 757 mmHg 92%
01:00 +13°C° 0.3 mm 6 m/S 757 mmHg 92%
02:00 +13°C° 0.1 mm 5 m/S 758 mmHg 92%
03:00 +13°C° 0.1 mm 5 m/S 758 mmHg 93%
04:00 +13°C° 0.1 mm 5 m/S 758 mmHg 93%
05:00 +13°C° 0 mm 4 m/S 759 mmHg 93%
06:00 +13°C° 0 mm 4 m/S 759 mmHg 93%
07:00 +13°C° 0 mm 4 m/S 759 mmHg 94%
08:00 +13°C° 0.1 mm 4 m/S 760 mmHg 93%
09:00 +13°C° 0.1 mm 4 m/S 760 mmHg 93%
10:00 +13°C° 0.1 mm 3 m/S 760 mmHg 93%
11:00 +13°C° 0.1 mm 3 m/S 760 mmHg 93%
12:00 +13°C° 0.1 mm 3 m/S 760 mmHg 93%
13:00 +14°C° 0.1 mm 2 m/S 760 mmHg 92%
14:00 +13°C° 0 mm 2 m/S 760 mmHg 93%
15:00 +13°C° 0 mm 2 m/S 760 mmHg 93%
16:00 +13°C° 0 mm 1 m/S 760 mmHg 93%
17:00 +13°C° 0 mm 1 m/S 760 mmHg 94%
18:00 +13°C° 0 mm 1 m/S 760 mmHg 94%
19:00 +12°C° 0 mm 1 m/S 760 mmHg 95%
20:00 +12°C° 0 mm 1 m/S 760 mmHg 95%
21:00 +12°C° 0 mm 1 m/S 760 mmHg 95%
22:00 +12°C° 0 mm 1 m/S 760 mmHg 95%
23:00 +12°C° 0 mm 2 m/S 760 mmHg 95%

1 November, Sonntag

Zeit Temperatur Niederschläge Wind Luftdruck Luftfeuchtigkeit
00:00 +12°C° 0 mm 2 m/S 760 mmHg 95%
01:00 +12°C° 0 mm 2 m/S 760 mmHg 96%
02:00 +10°C° 0 mm 2 m/S 759 mmHg 96%
03:00 +10°C° 0 mm 3 m/S 759 mmHg 96%
04:00 +10°C° 0 mm 3 m/S 759 mmHg 96%
05:00 +10°C° 0 mm 3 m/S 759 mmHg 96%
06:00 +10°C° 0 mm 3 m/S 759 mmHg 96%
07:00 +9°C° 0 mm 2 m/S 759 mmHg 96%
08:00 +10°C° 0 mm 3 m/S 758 mmHg 91%
09:00 +12°C° 0 mm 3 m/S 758 mmHg 87%
10:00 +13°C° 0 mm 3 m/S 758 mmHg 83%
11:00 +14°C° 0 mm 3 m/S 758 mmHg 79%
12:00 +16°C° 0 mm 3 m/S 758 mmHg 75%
13:00 +17°C° 0 mm 3 m/S 757 mmHg 71%
14:00 +16°C° 0 mm 3 m/S 757 mmHg 74%
15:00 +16°C° 0 mm 3 m/S 757 mmHg 77%
16:00 +15°C° 0 mm 2 m/S 756 mmHg 79%
17:00 +14°C° 0 mm 2 m/S 756 mmHg 81%
18:00 +13°C° 0 mm 3 m/S 756 mmHg 82%
19:00 +12°C° 0 mm 3 m/S 757 mmHg 83%
20:00 +12°C° 0 mm 3 m/S 756 mmHg 82%
21:00 +12°C° 0 mm 3 m/S 756 mmHg 80%
22:00 +13°C° 0 mm 3 m/S 756 mmHg 79%
23:00 +13°C° 0 mm 3 m/S 756 mmHg 79%

2 November, Montag

Zeit Temperatur Niederschläge Wind Luftdruck Luftfeuchtigkeit
00:00 +13°C° 0 mm 3 m/S 756 mmHg 79%
01:00 +13°C° 0 mm 3 m/S 756 mmHg 79%
02:00 +13°C° 0 mm 3 m/S 756 mmHg 80%
03:00 +13°C° 0 mm 3 m/S 755 mmHg 80%
04:00 +13°C° 0 mm 3 m/S 755 mmHg 81%
05:00 +13°C° 0 mm 3 m/S 755 mmHg 81%
06:00 +13°C° 0 mm 3 m/S 755 mmHg 81%
07:00 +13°C° 0 mm 3 m/S 755 mmHg 82%
08:00 +14°C° 0 mm 3 m/S 755 mmHg 79%
09:00 +16°C° 0 mm 3 m/S 755 mmHg 75%
10:00 +16°C° 0 mm 3 m/S 755 mmHg 72%
11:00 +17°C° 0 mm 3 m/S 755 mmHg 70%
12:00 +18°C° 0 mm 3 m/S 755 mmHg 67%
13:00 +18°C° 0 mm 4 m/S 755 mmHg 64%
14:00 +18°C° 0 mm 3 m/S 755 mmHg 68%
15:00 +17°C° 0 mm 2 m/S 755 mmHg 71%
16:00 +16°C° 0 mm 2 m/S 755 mmHg 75%
17:00 +16°C° 0 mm 2 m/S 755 mmHg 76%
18:00 +15°C° 0 mm 2 m/S 755 mmHg 78%
19:00 +15°C° 0 mm 2 m/S 755 mmHg 80%
20:00 +15°C° 0 mm 2 m/S 756 mmHg 80%
21:00 +14°C° 0 mm 2 m/S 756 mmHg 80%
22:00 +14°C° 0 mm 2 m/S 756 mmHg 80%
23:00 +14°C° 0 mm 2 m/S 756 mmHg 80%

3 November, Dienstag

Zeit Temperatur Niederschläge Wind Luftdruck Luftfeuchtigkeit
00:00 +14°C° 0 mm 2 m/S 756 mmHg 80%
01:00 +14°C° 0 mm 2 m/S 756 mmHg 80%
02:00 +14°C° 0 mm 2 m/S 756 mmHg 80%
03:00 +14°C° 0 mm 2 m/S 756 mmHg 80%
04:00 +14°C° 0 mm 2 m/S 756 mmHg 80%
05:00 +14°C° 0 mm 1 m/S 756 mmHg 79%
06:00 +14°C° 0 mm 1 m/S 756 mmHg 78%
07:00 +14°C° 0 mm 1 m/S 756 mmHg 77%
08:00 +14°C° 0 mm 1 m/S 757 mmHg 77%
09:00 +15°C° 0 mm 1 m/S 757 mmHg 76%
10:00 +15°C° 0 mm 1 m/S 757 mmHg 75%
11:00 +15°C° 0 mm 1 m/S 757 mmHg 77%
12:00 +15°C° 0 mm 2 m/S 757 mmHg 78%
13:00 +15°C° 0 mm 2 m/S 758 mmHg 79%
14:00 +14°C° 0.1 mm 2 m/S 758 mmHg 82%
15:00 +14°C° 0.1 mm 2 m/S 758 mmHg 84%
16:00 +14°C° 0.1 mm 2 m/S 758 mmHg 86%
17:00 +14°C° 0.1 mm 2 m/S 758 mmHg 87%
18:00 +14°C° 0.1 mm 2 m/S 758 mmHg 89%
19:00 +13°C° 0.1 mm 2 m/S 758 mmHg 90%
20:00 +12°C° 0 mm 3 m/S 759 mmHg 90%
21:00 +12°C° 0 mm 3 m/S 759 mmHg 89%
22:00 +12°C° 0 mm 3 m/S 759 mmHg 89%
23:00 +12°C° 0 mm 3 m/S 759 mmHg 88%
Mehr zeigen